This is the latest recevied weather packets stored in our database for station/object KK4WXG. If no packets are shown the sender has not sent any weather packets the latest 10 day(s).
| Time | Temp. | Humidity | Pressure | Rain* | Wind** | Luminosity | Snow |
|---|---|---|---|---|---|---|---|
| 1777405548 | 15° C | 71% | 1016.2 hPa | 0 mm | - | 135 W/m² | - |
| 1777405245 | 15.56° C | 70% | 1016.6 hPa | 0 mm | - | 123 W/m² | - |
| 1777404944 | 15° C | 71% | 1016.5 hPa | 0 mm | - | 115 W/m² | - |
| 1777404640 | 15° C | 71% | 1016.6 hPa | 0 mm | - | 111 W/m² | - |
| 1777404336 | 15° C | 70% | 1016.7 hPa | 0 mm | - | 114 W/m² | - |
| 1777404033 | 15° C | 72% | 1016.9 hPa | 0 mm | - | 134 W/m² | - |
| 1777403728 | 15° C | 70% | 1016.9 hPa | 0 mm | - | 137 W/m² | - |
| 1777403427 | 15° C | 71% | 1017 hPa | 0 mm | - | 187 W/m² | - |
| 1777403122 | 15° C | 70% | 1016.9 hPa | 0 mm | - | 183 W/m² | - |
| 1777402817 | 15° C | 69% | 1017.1 hPa | 0 mm | - | 200 W/m² | - |
| 1777402515 | 15° C | 71% | 1016.9 hPa | 0 mm | - | 278 W/m² | - |
| 1777402212 | 15° C | 69% | 1017 hPa | 0 mm | - | 238 W/m² | - |
| 1777401912 | 15° C | 71% | 1017.2 hPa | 0 mm | - | 268 W/m² | - |
| 1777401611 | 15° C | 70% | 1017.2 hPa | 0 mm | - | 368 W/m² | - |
| 1777401308 | 14.44° C | 71% | 1017.2 hPa | 0 mm | - | 246 W/m² | - |
| 1777401003 | 14.44° C | 73% | 1017.2 hPa | 0 mm | - | 209 W/m² | - |
| 1777400699 | 14.44° C | 71% | 1017.3 hPa | 0 mm | - | 214 W/m² | - |
| 1777400397 | 13.89° C | 72% | 1017.2 hPa | 0 mm | - | 188 W/m² | - |
| 1777400091 | 13.89° C | 73% | 1017.3 hPa | 0 mm | - | 207 W/m² | - |
| 1777399789 | 13.89° C | 73% | 1017.4 hPa | 0 mm | - | 188 W/m² | - |
| 1777399486 | 13.89° C | 73% | 1017.4 hPa | 0 mm | - | 123 W/m² | - |
| 1777399184 | 13.89° C | 72% | 1017.5 hPa | 0 mm | - | 183 W/m² | - |
| 1777398880 | 14.44° C | 71% | 1017.4 hPa | 0 mm | - | 292 W/m² | - |
| 1777398578 | 13.89° C | 72% | 1017.6 hPa | 0 mm | - | 332 W/m² | - |
| 1777398274 | 13.89° C | 72% | 1017.8 hPa | 0 mm | - | 319 W/m² | - |
* Rain latest hour (hover to see other rain measurements)
** Current wind speed in m/s (hover to see current wind gust speed)